Content
SEND FEEDBACK

Daily
Averages
Monthly
Summary
United States of America

CHESTERFIELD, MISSOURI


Home > North America > United States > Missouri
Elevation: 559 feet     Latitude: 38 41N     Longitude: 090 31W

WEATHER
 
SELECT A DAY
Number of Records: 203,439;   Date Range: 1/1/95 - 7/29/14
 
SHARE

PRINT THIS DATA

[ ← Previous Day ]
WEATHER ALMANAC - JANUARY 15, 2013
[ Next Day → ]
[ °C ]   °F
Weather ElementAverageHighLow
Temperature25 °F30.2 °F (2:51 pm)17.6 °F (5:51 am)
Dewpoint16.1 °F19.9 °F (10:51 pm)12.2 °F (5:51 am)
Humidity69.4 %81 % (1:51 am)55 % (2:51 pm)
Barometer30.34 in30.45 in (1:51 am)30.20 in (10:51 pm)
Wind Speed5.4 mph11.5 mph (9:51 am)
Weather ElementAverage
Visibility9.7 mi
Wind DirectionESE (126.1 °)

Weather ElementTotal
Precipitation---
Heating Degree Days41.1 (Base 65)
Averaged from 23 records on January 15, 2013
WEATHER CONDITIONS BREAKOUT
WIND DIRECTION BREAKOUT
WEATHER BY HOUR - JANUARY 15, 2013
[ °C ]   °F
Local TimeTemperatureDewpointHumidityBarometerVisibilityWind DirectionWind SpeedGust SpeedPrecipitationEventsConditions
1:51 AM19.9 °F15.1 °F81 %30.45 in10.0 miNNE (20°)5.8 mphClear
2:51 AM19.4 °F14.0 °F80 %30.40 in10.0 miNE (40°)5.8 mphClear
3:51 AM18.0 °F12.9 °F81 %30.44 in10.0 miENE (70°)3.5 mphPartly Cloudy
4:51 AM19.0 °F12.9 °F77 %30.41 in10.0 miNNE (20°)4.6 mphPartly Cloudy
5:51 AM17.6 °F12.2 °F79 %30.35 in9.0 miENE (60°)4.6 mphClear
6:51 AM19.0 °F12.9 °F77 %30.44 in9.0 miNNE (30°)3.5 mphScattered Clouds
7:51 AM19.0 °F12.9 °F77 %30.45 in8.0 miNNE (30°)3.5 mphMostly Cloudy
8:51 AM21.9 °F15.1 °F75 %30.41 in8.0 miNE (40°)9.2 mphMostly Cloudy
9:51 AM25.0 °F14.0 °F63 %30.38 in9.0 miENE (60°)11.5 mphMostly Cloudy
10:51 AM28.0 °F15.1 °F58 %30.40 in10.0 miNE (50°)4.6 mphOvercast
11:51 AM27.0 °F14.0 °F58 %30.38 in10.0 miCalmOvercast
12:51 PM28.0 °F15.1 °F58 %30.34 in10.0 miNNE (30°)5.8 mphOvercast
1:51 PM28.9 °F15.1 °F56 %30.34 in10.0 miCalmMostly Cloudy
2:51 PM30.2 °F15.8 °F55 %30.27 in10.0 miNNW (340°)8.1 mphMostly Cloudy
3:51 PM28.9 °F19.0 °F67 %30.30 in10.0 miNorth (350°)9.2 mphMostly Cloudy
4:51 PM28.9 °F19.0 °F67 %30.28 in10.0 miNorth (350°)10.4 mphOvercast
5:51 PM28.9 °F19.0 °F67 %30.28 in10.0 miNorth (360°)8.1 mphOvercast
6:51 PM28.9 °F19.0 °F67 %30.27 in10.0 miNNE (30°)8.1 mphMostly Cloudy
7:51 PM28.0 °F19.0 °F69 %30.26 in10.0 miNNE (30°)4.6 mphMostly Cloudy
8:51 PM28.0 °F19.0 °F69 %30.26 in10.0 miNNW (330°)3.5 mphMostly Cloudy
9:51 PM28.0 °F19.0 °F69 %30.22 in10.0 miNorth (360°)4.6 mphMostly Cloudy
10:51 PM28.0 °F19.9 °F72 %30.20 in10.0 miCalmMostly Cloudy
11:51 PM27.0 °F19.9 °F75 %30.20 in10.0 miWNW (300°)4.6 mphMostly Cloudy
Hourly data recorded from KSTL, located miles away from Chesterfield, Missouri







STORIES FROM OUR PARTNERS